[[{"header":{"parameterUnit":"m.s-1","parameterCategory":1,"la1":30.2992,"la2":30.254,"lo1":-89.0895,"lo2":-89.0443,"dy":0.0025,"dx":0.0025,"nx":19,"ny":19,"refTime":"2026-03-14T09:00:00:Z","depth":0,"parameterNumber":2,"parameterNumberName":"U-component_of_WINDS"},"data":[0,0,0,-0.2709,-0.2711,-0.2803,-0.2803,-0.2909,-0.291,0,0,0,0,0,0,0,0,0,0,0,-0.2671,-0.2671,-0.2709,-0.2711,-0.2803,-0.2804,-0.2909,-0.291,0,0,0,0,0,0,0,0,0,0,0,-0.2671,-0.2671,-0.2671,-0.2711,-0.2803,-0.2804,-0.2908,-0.2844,0,0,0,0,0,0,0,0,0,0,-0.2757,-0.271,-0.2671,-0.2671,-0.2712,-0.2803,-0.2804,-0.2841,-0.2848,-0.2861,0,-0.2866,0,-0.2889,-0.2916,-0.2916,0,0,0,-0.272,-0.2705,-0.2739,-0.2671,-0.2712,-0.2803,-0.2764,-0.2845,-0.2853,-0.287,-0.2868,-0.2872,-0.2891,-0.2916,-0.2917,-0.2951,-0.2951,0,0,-0.2715,-0.2682,-0.2733,-0.2743,-0.2725,-0.2761,-0.2767,-0.285,-0.2847,-0.2868,-0.2875,-0.2893,-0.2917,-0.2917,-0.2951,-0.2951,0,0,0,-0.2694,-0.2678,-0.2711,-0.2739,-0.2756,-0.2763,-0.277,-0.2844,-0.2857,-0.2876,-0.2894,-0.2917,-0.2918,-0.2952,-0.2951,-0.2905,0,0,0,-0.2691,-0.2666,-0.2708,-0.269,-0.2754,-0.28,-0.2761,-0.2851,-0.2861,-0.2893,-0.2917,-0.2919,-0.2952,-0.2952,-0.2907,-0.2888,0,0,0,-0.2669,-0.2664,-0.2673,-0.2688,-0.2726,-0.28,-0.2818,-0.2854,-0.2872,-0.2916,-0.2919,-0.2952,-0.2952,-0.2908,-0.2891,-0.2887,0,0,0,-0.2636,-0.2632,-0.2672,-0.2676,-0.2725,-0.2769,-0.2818,-0.2854,-0.2886,-0.2918,-0.2952,-0.2951,-0.2909,-0.2893,-0.2888,-0.2875,-0.2867,0,0,-0.2614,-0.2629,-0.2634,-0.2671,-0.27,-0.2758,-0.2782,-0.2844,-0.288,-0.2926,-0.2928,-0.2906,-0.2891,-0.2887,-0.2836,-0.2829,0,0,0,-0.2616,-0.2618,-0.2633,-0.2661,-0.2706,-0.2745,-0.2806,-0.2829,-0.287,-0.2896,-0.2905,-0.2898,-0.2896,-0.2892,-0.2886,-0.2887,-0.2948,-0.2948,-0.2948,-0.2537,-0.2581,-0.2592,-0.2646,-0.2673,-0.2736,-0.2763,-0.2806,-0.2844,-0.2846,-0.2859,-0.2822,-0.2816,-0.2812,-0.2812,-0.2857,-0.2857,-0.2857,-0.2857,-0.2508,-0.2518,-0.2568,-0.2596,-0.2643,-0.2669,-0.2731,-0.2757,-0.2789,-0.2816,-0.2817,-0.2842,-0.2803,-0.2805,-0.2854,-0.2855,-0.2855,-0.2855,-0.2855,-0.246,-0.2472,-0.2499,-0.2544,-0.2574,-0.2632,-0.2659,-0.2703,-0.2745,-0.2746,-0.2764,-0.2765,-0.2771,-0.2752,-0.2752,-0.2752,-0.2752,-0.2752,-0.2751,-0.2399,-0.2431,-0.2447,-0.2494,-0.2518,-0.2555,-0.2619,-0.2645,-0.2685,-0.2715,-0.2715,-0.2753,-0.2791,-0.2798,-0.275,-0.275,-0.275,-0.275,-0.275,-0.235,-0.2368,-0.2392,-0.2415,-0.2476,-0.2503,-0.2558,-0.2607,-0.2635,-0.2647,-0.2686,-0.2707,-0.2726,-0.2731,-0.2738,-0.2676,-0.2676,-0.2676,-0.2676,-0.2308,-0.2322,-0.2356,-0.239,-0.243,-0.2482,-0.2511,-0.2562,-0.2618,-0.2639,-0.2655,-0.2668,-0.2671,-0.2689,-0.2694,-0.2701,-0.2632,-0.2632,-0.2632,-0.228,-0.2299,-0.2313,-0.2365,-0.2416,-0.2459,-0.2488,-0.2528,-0.2596,-0.2631,-0.2656,-0.2658,-0.2679,-0.2684,-0.2717,-0.2725,-0.2738,0,0]},{"header":{"parameterUnit":"m.s-1","parameterCategory":1,"la1":30.2992,"la2":30.254,"lo1":-89.0895,"lo2":-89.0443,"dy":0.0025,"dx":0.0025,"nx":19,"ny":19,"refTime":"2026-03-14T09:00:00:Z","depth":0,"parameterNumber":3,"parameterNumberName":"V-component_of_WINDS"},"data":[0,0,0,5.6399,5.6404,5.6636,5.6637,5.6908,5.691,0,0,0,0,0,0,0,0,0,0,0,5.6314,5.6315,5.6399,5.6404,5.6636,5.6637,5.6908,5.691,0,0,0,0,0,0,0,0,0,0,0,5.6314,5.6315,5.6317,5.6405,5.6635,5.6637,5.6907,5.6742,0,0,0,0,0,0,0,0,0,0,5.6521,5.6426,5.6315,5.6317,5.6406,5.6635,5.6637,5.6734,5.6752,5.6792,0,5.6822,0,5.687,5.6927,5.6927,0,0,0,5.6417,5.641,5.6488,5.6317,5.6408,5.6635,5.6535,5.6744,5.6764,5.6815,5.6826,5.6837,5.6874,5.6928,5.6929,5.7116,5.7116,0,0,5.6404,5.6347,5.6474,5.65,5.6461,5.6527,5.6542,5.6757,5.6765,5.6827,5.6843,5.6879,5.693,5.6932,5.7115,5.7116,0,0,0,5.6359,5.6337,5.641,5.6488,5.6532,5.6534,5.6551,5.6755,5.6784,5.6847,5.6882,5.6931,5.6934,5.7115,5.7115,5.7073,0,0,0,5.6352,5.6311,5.6404,5.6371,5.6527,5.6646,5.6543,5.6769,5.6795,5.6881,5.6931,5.6937,5.7115,5.7115,5.7073,5.7062,0,0,0,5.6305,5.6306,5.6333,5.6368,5.6465,5.6644,5.6685,5.6776,5.6816,5.6928,5.6937,5.7115,5.7115,5.7074,5.7063,5.7095,0,0,0,5.6238,5.6292,5.6332,5.6406,5.6463,5.6615,5.6685,5.6802,5.6892,5.6932,5.7115,5.7115,5.7074,5.7064,5.7095,5.7111,5.7112,0,0,5.6274,5.6294,5.6343,5.6385,5.6516,5.6585,5.6711,5.6848,5.6912,5.7044,5.705,5.7073,5.7063,5.7095,5.7138,5.7139,0,0,0,5.6335,5.6369,5.6416,5.6499,5.6605,5.6696,5.6821,5.6872,5.6988,5.6968,5.7095,5.7091,5.7112,5.7122,5.7123,5.7145,5.7118,5.7118,5.7117,5.6302,5.6381,5.6467,5.6574,5.6654,5.6783,5.6856,5.6948,5.7003,5.7032,5.7072,5.7088,5.7098,5.7099,5.7121,5.7087,5.7087,5.7086,5.7086,5.6363,5.6424,5.6498,5.6608,5.6691,5.6786,5.6913,5.6949,5.705,5.7065,5.7087,5.7096,5.7097,5.712,5.7084,5.7084,5.7085,5.7085,5.7085,5.635,5.6393,5.6455,5.6585,5.6677,5.6784,5.6878,5.6951,5.7021,5.7043,5.7093,5.7094,5.7105,5.7062,5.7062,5.7062,5.7062,5.7062,5.7062,5.6312,5.6383,5.6453,5.6571,5.6636,5.673,5.6861,5.6927,5.7019,5.7065,5.7066,5.7119,5.7082,5.7071,5.7063,5.7063,5.7063,5.7063,5.7063,5.6343,5.6348,5.6455,5.6519,5.6666,5.6753,5.6846,5.6975,5.704,5.7084,5.7134,5.7094,5.712,5.7121,5.7112,5.7116,5.7116,5.7116,5.7116,5.6332,5.6353,5.648,5.6578,5.6683,5.6779,5.6899,5.7003,5.7111,5.7157,5.7168,5.7163,5.716,5.7188,5.7187,5.718,5.7201,5.7201,5.7201,5.6356,5.6391,5.6478,5.6583,5.6705,5.6807,5.6923,5.7035,5.7159,5.7206,5.7195,5.7191,5.7184,5.7178,5.7222,5.7219,5.7208,0,0]}]]